Flag for Marshall Islands Weather past 2 weeks in Majuro, Marshall Islands

Now
82 °F

Passing clouds.


Feels Like: 89 °F
Forecast: 82 / 86 °F
Wind: 6 mph from East

Location: Majuro Atoll

Current Time: Aug 24, 2014 at 5:39:16 AM

Latest Report: Aug 24, 2014 at 4:51 AM


Visibility: 15 mi

Pressure: 29.80 "Hg

Humidity: 82%

Dew point: 76 °F

Location of MajuroLocation

Historic Weather in Majuro — Graph

°F

Majuro temperature yesterday

Maximum temperature yesterday: 89 °F (at 12:55 PM)
Minimum temperature yesterday: 82 °F (at 11:51 PM)
Average temperature yesterday: 85 °F

Past Weeks' High & Low Weather Summary

 TemperatureHumidityPressure
High89 °F (Aug 23, 12:55 PM)93% (Aug 12, 6:50 PM)29.91 "Hg (Aug 12, 6:50 PM)
Low74 °F (Aug 20, 10:52 PM)68% (Aug 11, 11:56 AM)29.72 "Hg (Aug 16, 3:51 PM)
Average83 °F79%29.83 "Hg
* Reported Aug 9 3:52 AM — Aug 24 3:53 AM, Majuro, Weather by CustomWeather, © 2014

Note: Actual official high and low records may vary slightly from our data, if they occured in-between our weather recording intervals... More about our weather records

Advertising

Majuro weather history for previous 24 hours

 ConditionsComfort  
Time TempWeatherWind HumidityBarometerVisibility
3:53 AM
Aug 24
81 °FPassing clouds.7 mph86%29.78 "Hg15 mi
2:50 AM82 °FPassing clouds.16 mph85%29.80 "Hg15 mi
1:55 AM82 °FPartly cloudy.9 mph84%29.81 "Hg15 mi
12:56 AM80 °FPartly cloudy.9 mph90%29.83 "Hg15 mi
11:51 PM
Aug 23
82 °FPassing clouds.9 mph81%29.85 "Hg15 mi
10:50 PM82 °FPassing clouds.13 mph79%29.85 "Hg15 mi
9:50 PM84 °FPassing clouds.6 mph77%29.84 "Hg15 mi
8:54 PM84 °FPassing clouds.6 mph76%29.83 "Hg15 mi
7:51 PM84 °FPassing clouds.7 mph75%29.81 "Hg15 mi
6:52 PM84 °FScattered clouds.7 mph76%29.80 "Hg20 mi
5:50 PM85 °FScattered clouds.7 mph75%29.78 "Hg20 mi
4:54 PM87 °FPassing clouds.12 mph73%29.76 "Hg20 mi
3:54 PM88 °FScattered clouds.10 mph69%29.77 "Hg20 mi
2:56 PM88 °FPassing clouds.10 mph68%29.78 "Hg20 mi
1:50 PM89 °FScattered clouds.8 mph69%29.78 "Hg20 mi
12:55 PM89 °FScattered clouds.8 mph68%29.80 "Hg20 mi
11:55 AM88 °FScattered clouds.13 mph69%29.83 "Hg20 mi
10:50 AM87 °FScattered clouds.8 mph72%29.84 "Hg20 mi
9:55 AM86 °FScattered clouds.10 mph73%29.85 "Hg20 mi
8:52 AM86 °FScattered clouds.10 mph72%29.85 "Hg15 mi
7:50 AM84 °FPassing clouds.10 mph77%29.84 "Hg15 mi
6:50 AM82 °FPassing clouds.9 mph79%29.82 "Hg15 mi
5:51 AM82 °FPassing clouds.7 mph76%29.81 "Hg15 mi
Weather by CustomWeather, © 2014

See weather overviewHow to use our weather pages